Location: Kershaw
(34.5481°N, 80.5823°W)
Time: 21:47:52
(UTC+00:00)

Tiangong - Visible Passes

Search period start: 08 August 2022 00:00
Search period end: 18 August 2022 00:00
Orbit: 379 x 387 km, 41.5° (Epoch: 08 August)

Date Brightness Start Highest point End Pass type
(mag) Time Alt. Az. Time Alt. Az. Time Alt. Az.
08 Aug 0.3 08:16:36 22° NNE 08:16:36 22° NNE 08:18:44 10° ENE visible
08 Aug -1.6 09:50:09 10° WNW 09:53:17 61° NNE 09:56:26 10° ESE visible
09 Aug -0.8 08:51:56 28° NNW 08:53:02 38° NNE 08:56:01 10° E visible
10 Aug 1.3 07:55:18 11° ENE 07:55:18 11° ENE 07:55:28 10° ENE visible
10 Aug -2.3 09:27:33 19° WNW 09:29:40 74° SSW 09:32:49 10° ESE visible
11 Aug 0.1 08:31:15 22° E 08:31:15 22° E 08:32:34 10° ESE visible
11 Aug -0.6 10:03:41 10° W 10:06:02 19° SW 10:08:22 10° SSE visible
12 Aug -0.3 09:07:34 21° SSE 09:07:34 21° SSE 09:08:52 10° SE visible
13 Aug 0.5 01:35:11 10° SSW 01:35:14 10° SSW 01:35:14 10° SSW visible
14 Aug 0.0 00:36:48 10° SSE 00:37:32 11° SE 00:38:15 10° SE visible
14 Aug 0.4 02:10:48 10° WSW 02:11:31 16° WSW 02:11:31 16° WSW visible
15 Aug -1.7 01:10:44 10° SW 01:13:41 39° SSE 01:15:10 23° E visible
16 Aug -1.6 01:47:00 10° WSW 01:50:05 57° NNW 01:50:40 47° NNE visible
17 Aug -2.3 00:46:38 10° WSW 00:49:46 79° SSE 00:52:53 10° ENE visible
17 Aug 0.3 02:24:01 10° WNW 02:25:51 23° NW 02:25:51 23° NW visible
